Theta_e
312 313 313 314 314 314 315 315 315 315 315 316 316 316 316 317 316 317 317 316 315 315 315 315 315 314 314 314 315 317 315 316 316 312 312 312 311 312 312 314 315 314 313 314 314 315 314 313 313 312 317 319 316 317 316 317 324 330 335 331 320 320 324 322 320 317 318 320 315 311 311 314 314 309 304 304 306 306 305 304 303 301 299 299 300 300 301 302
312 313 313 313 314 314 314 314 315 315 315 315 315 315 315 316 315 316 316 316 315 315 315 315 315 315 314 314 314 316 316 315 316 314 312 312 311 311 312 314 314 314 313 312 313 314 314 315 312 314 321 321 315 317 318 314 320 332 333 324 319 325 323 319 320 316 315 316 315 312 310 312 313 310 306 308 311 306 307 307 304 304 302 299 298 299 300 300
311 311 312 312 313 313 313 313 313 314 314 314 314 314 314 314 315 315 315 316 315 315 316 315 315 315 314 315 314 316 316 315 317 315 313 312 311 311 311 312 313 313 312 312 313 312 314 315 311 315 325 321 315 319 322 316 317 324 326 323 324 329 322 316 318 317 315 312 314 312 309 310 310 308 307 310 313 307 309 310 307 308 305 301 298 297 299 298
309 310 310 310 311 311 311 311 312 312 312 312 313 313 313 313 314 314 314 315 315 315 316 315 315 315 315 314 314 316 315 316 319 315 313 312 311 312 311 311 312 313 312 312 313 312 312 312 311 318 322 319 322 322 320 317 316 316 319 322 321 321 318 316 316 317 316 310 313 314 309 311 308 307 308 310 312 309 309 309 309 311 306 301 298 297 297 297
309 309 309 309 309 309 310 310 310 310 310 311 311 311 312 312 313 313 313 314 314 315 315 315 315 315 316 315 314 315 316 319 319 314 313 312 311 312 312 310 311 313 312 312 313 313 312 310 314 326 323 320 327 324 316 314 313 313 314 316 317 315 314 316 315 315 315 309 311 314 311 311 308 307 309 309 312 312 310 308 308 309 305 300 298 297 296 296
309 308 308 309 308 309 309 309 309 309 309 309 309 310 310 311 311 312 312 313 314 315 315 314 314 315 315 314 314 314 317 319 316 314 314 313 312 312 312 311 311 312 312 312 312 313 315 315 319 329 327 322 322 318 315 313 311 314 314 313 316 315 314 315 315 314 313 312 314 314 311 310 309 311 309 307 310 312 310 308 306 304 301 299 298 297 297 297
309 309 309 309 309 309 309 309 309 308 309 309 309 309 309 310 310 311 312 312 313 314 315 314 314 315 315 314 315 317 320 321 316 315 314 313 312 312 312 311 310 312 312 311 312 316 321 321 322 326 326 321 317 315 315 312 312 316 316 315 315 313 314 315 312 314 313 313 314 310 307 310 313 312 309 308 308 310 307 301 300 299 298 298 297 297 297 297
310 310 309 309 310 310 309 309 309 309 309 309 309 309 309 309 309 310 310 312 312 314 315 314 313 315 316 315 316 321 323 321 317 314 314 313 313 312 312 311 310 312 312 310 312 317 321 319 319 319 321 318 315 315 313 312 314 317 316 315 314 312 317 316 311 314 313 311 309 306 309 312 312 308 308 310 308 308 305 299 298 297 297 297 297 297 296 296
312 311 310 310 310 310 310 310 309 310 309 309 309 309 309 308 308 309 310 311 311 313 314 313 314 315 317 315 315 320 320 317 315 313 313 313 313 312 312 311 310 311 311 311 311 312 316 318 317 316 319 318 314 314 313 313 315 316 315 316 315 314 316 313 311 314 311 309 306 307 312 311 308 306 308 310 308 307 304 302 301 298 298 298 297 297 296 296
312 312 312 311 310 311 310 310 310 310 309 309 309 308 309 309 308 308 309 310 311 314 313 313 314 315 316 314 314 318 316 315 314 313 312 313 312 312 311 310 310 311 311 311 311 310 313 315 313 312 317 318 313 312 312 313 313 314 316 316 314 313 313 311 311 313 310 309 307 308 312 310 307 306 309 311 306 303 304 304 300 299 299 297 297 296 295 295
313 313 313 312 311 311 311 310 310 310 310 309 308 308 308 308 308 308 309 310 312 313 314 313 314 315 316 314 317 320 315 313 313 311 311 311 312 311 310 310 309 311 311 311 311 310 311 311 309 308 314 315 312 312 311 310 311 312 313 313 312 313 312 309 310 310 308 310 308 308 310 309 307 306 310 311 302 301 306 305 299 299 299 296 297 296 295 295
313 313 313 313 312 312 311 311 311 310 310 309 308 308 308 309 308 308 309 310 312 313 314 313 314 316 314 314 318 319 314 312 311 310 310 310 311 311 310 310 310 310 311 311 311 310 311 310 310 312 314 312 313 313 311 309 309 311 311 312 315 318 315 309 309 309 307 310 309 308 309 310 309 308 311 308 300 300 305 305 300 298 298 297 296 296 296 295
314 313 313 313 313 313 312 312 311 311 310 309 309 308 308 308 308 308 309 311 313 313 314 314 315 315 314 317 318 315 314 313 312 310 310 311 312 311 310 310 310 310 311 311 310 310 311 310 311 314 312 313 315 310 310 310 308 310 311 313 318 323 319 309 307 307 307 310 309 309 313 315 312 309 310 304 299 302 305 304 300 298 297 296 296 295 296 295
314 313 313 313 313 313 312 312 312 311 310 309 309 308 308 308 308 309 310 312 313 313 314 314 315 313 314 318 315 313 315 313 311 310 309 311 312 311 310 311 311 311 311 311 310 310 311 309 310 313 311 313 311 305 313 319 314 313 311 317 321 319 321 316 309 309 308 309 308 309 315 317 315 314 311 302 299 304 307 305 299 297 297 296 296 295 296 295
313 313 313 313 313 312 312 312 312 311 311 310 309 308 308 308 308 309 311 313 313 314 314 314 314 313 316 318 313 313 315 312 312 311 310 311 311 310 310 311 311 311 311 310 310 310 310 310 312 315 313 309 309 312 324 327 323 320 312 321 326 317 323 323 312 311 311 309 307 309 315 316 313 315 310 300 298 303 307 305 299 298 297 295 296 295 295 296
313 313 312 313 312 312 312 312 312 312 311 310 309 308 308 308 308 310 313 313 314 314 314 315 314 313 318 318 313 313 314 312 312 312 312 310 310 311 310 311 311 310 311 310 310 310 309 313 313 312 312 310 315 326 331 326 330 329 316 320 329 320 321 321 312 311 311 309 308 309 315 316 314 313 305 297 298 301 304 304 300 298 297 296 295 295 295 296
312 312 312 312 312 311 312 312 313 312 311 311 309 308 308 308 310 311 313 314 315 315 315 317 314 313 317 315 314 316 313 311 314 314 312 311 310 310 310 310 309 308 310 310 310 311 310 313 312 311 317 316 319 328 325 323 330 331 321 320 326 321 316 318 317 311 307 309 310 309 310 312 313 312 307 301 298 301 303 303 301 299 297 296 295 295 295 295
312 312 311 311 310 310 311 311 313 312 312 311 309 309 308 309 311 312 314 314 314 314 314 315 313 313 314 313 315 316 312 312 314 313 312 312 310 310 310 309 307 308 313 314 312 314 314 315 317 321 325 319 319 325 321 322 325 324 323 322 323 320 315 317 319 312 307 308 310 310 310 309 310 309 310 306 299 302 305 302 301 300 298 297 296 295 295 295
311 311 311 311 310 310 310 311 312 312 312 311 310 309 308 311 312 312 312 311 315 317 314 315 314 314 313 313 313 312 312 313 313 312 311 312 310 310 310 308 311 312 316 318 315 316 317 319 321 322 323 319 319 322 321 328 329 322 323 324 323 320 317 317 316 311 306 308 309 308 308 309 309 308 309 308 302 302 304 301 300 300 298 297 296 296 296 295
311 311 311 311 310 310 310 311 312 312 312 311 310 309 311 317 318 318 314 312 316 316 313 317 317 317 315 314 314 312 313 312 312 313 311 311 310 310 310 309 316 317 317 324 321 314 314 320 322 320 324 325 324 322 320 326 325 319 320 320 319 317 316 315 313 310 306 308 311 309 308 308 307 307 307 307 304 304 303 301 300 300 299 298 297 296 296 295
310 310 311 311 311 310 310 310 312 312 312 311 310 309 311 315 314 316 316 315 313 305 310 315 310 313 313 311 313 312 314 314 312 312 311 310 310 311 313 312 316 320 320 323 320 312 312 319 322 321 322 323 323 318 314 316 315 314 318 317 317 316 316 313 309 309 308 308 311 310 309 309 307 306 306 306 306 306 305 303 301 301 300 299 297 297 296 296
311 311 311 312 313 312 310 310 312 312 312 311 309 308 307 309 311 309 308 316 315 304 309 311 306 311 310 308 312 311 314 317 314 312 311 309 310 313 316 315 317 322 319 317 317 315 318 321 320 321 318 314 313 310 311 316 314 315 317 316 317 316 315 314 309 308 307 307 312 312 310 309 308 307 307 307 307 308 307 306 304 302 301 300 298 298 297 296
311 311 312 313 313 311 310 311 312 312 312 310 308 308 307 308 311 309 308 315 319 313 315 316 315 319 315 310 311 311 315 317 315 316 311 309 311 315 317 316 317 321 317 317 320 319 323 324 319 316 314 313 313 309 311 315 314 316 317 318 320 316 316 317 313 309 308 307 310 311 308 308 308 307 308 308 308 308 308 307 306 303 303 302 300 299 298 297
312 310 311 313 312 311 310 310 311 310 310 310 308 308 309 310 310 310 312 315 316 317 317 314 314 322 321 312 309 313 316 315 316 316 309 310 314 312 315 317 319 319 316 319 321 319 323 320 309 307 310 317 318 311 311 313 316 319 317 316 319 317 317 318 315 311 311 310 308 309 311 312 313 310 309 309 307 307 306 306 306 304 303 303 302 301 299 298
312 310 310 311 310 310 309 309 311 308 308 310 308 307 309 311 310 309 312 313 315 317 312 308 312 319 317 310 310 313 314 315 318 312 305 308 314 311 312 314 315 318 318 319 320 319 321 313 306 310 310 315 320 316 315 315 318 323 321 317 317 318 317 314 313 313 317 318 309 309 314 315 317 315 312 312 311 312 309 307 307 304 302 302 302 301 300 299
312 310 309 311 309 309 309 311 311 309 309 309 309 308 307 310 311 309 309 310 314 317 313 310 315 317 312 310 312 312 315 316 310 305 304 307 310 311 313 312 311 317 319 319 319 320 318 307 307 317 315 314 317 317 317 315 316 321 319 316 314 313 313 312 312 313 321 321 310 310 317 316 315 316 318 319 317 318 316 313 312 307 304 302 301 301 300 299
312 310 311 311 309 310 312 313 311 309 310 311 309 307 306 309 309 307 307 308 311 316 317 313 313 314 312 310 309 312 319 316 306 303 305 306 307 308 313 314 312 314 314 315 318 319 315 308 309 314 315 315 315 317 317 313 318 322 315 314 315 313 314 315 313 313 316 313 309 312 314 313 314 314 316 317 315 315 313 313 313 310 308 304 302 301 300 300
312 311 312 311 309 310 312 312 311 309 309 310 309 306 307 308 306 308 307 305 310 317 318 316 311 311 311 307 307 312 313 312 311 307 302 303 306 308 313 317 317 316 311 314 321 317 312 315 315 313 314 316 315 318 315 312 318 319 309 309 314 314 316 315 312 312 311 309 313 315 309 311 316 314 313 311 311 314 313 312 312 311 311 307 304 301 300 300
312 311 311 310 310 311 311 311 311 310 308 309 308 307 308 306 304 309 309 305 312 318 315 314 312 311 312 309 310 313 310 310 313 308 303 303 305 307 310 314 317 315 309 313 321 317 311 312 313 314 317 317 316 312 307 312 316 311 305 308 310 310 311 311 311 312 312 312 316 315 310 312 316 316 314 310 310 315 315 312 311 310 311 310 307 303 300 299
313 312 310 310 311 312 312 312 311 310 309 308 308 306 306 308 307 308 308 307 312 316 313 313 313 315 315 314 315 314 312 313 309 306 307 307 307 308 308 308 313 317 315 315 319 315 308 304 306 313 316 314 312 306 302 309 310 305 308 315 315 311 307 309 312 311 314 318 318 314 311 312 315 316 315 312 315 320 318 315 312 311 312 312 309 304 301 299
314 313 311 310 311 312 312 312 310 311 309 308 307 306 308 315 315 310 308 307 308 312 315 316 314 315 317 319 321 316 313 314 309 307 309 307 308 311 309 309 313 320 321 319 318 315 308 307 310 313 311 309 311 308 304 303 304 307 315 319 319 317 312 314 315 313 317 322 318 312 308 309 314 315 313 313 314 316 318 319 320 319 318 317 312 305 300 299
314 313 311 311 311 312 313 312 310 311 310 308 307 309 313 316 314 309 306 305 309 313 319 322 315 316 318 318 321 316 314 317 311 308 312 311 311 312 312 315 317 319 322 321 320 320 315 313 312 309 306 309 316 315 308 304 304 310 317 320 321 320 320 322 320 316 320 320 313 307 307 308 311 312 311 312 313 313 313 314 320 324 325 324 318 308 302 299
314 312 312 312 312 312 313 313 311 311 311 308 307 312 317 314 309 309 308 306 309 312 318 323 318 317 318 319 322 317 314 319 313 308 311 312 311 311 312 316 318 316 319 318 317 320 320 315 309 309 309 310 315 316 314 312 308 309 316 321 322 322 326 330 325 316 316 317 310 304 308 311 310 311 311 310 310 313 312 309 312 319 324 324 316 308 305 301
314 312 312 313 313 312 312 312 311 311 310 307 308 314 316 312 309 310 311 308 309 314 317 319 316 316 317 319 322 318 316 319 314 309 311 311 311 314 314 314 314 317 320 317 316 320 320 316 312 313 314 310 310 313 317 316 309 308 314 316 318 325 330 331 328 319 316 320 314 305 310 315 312 312 315 312 309 310 311 309 308 310 312 311 307 305 306 302
316 313 312 313 313 313 312 312 312 311 309 307 309 314 311 310 312 313 313 310 311 317 317 316 316 316 318 319 320 318 317 317 315 312 313 313 313 317 316 313 311 317 322 318 319 319 316 317 315 309 309 308 309 312 312 312 310 309 311 313 316 321 320 318 319 316 315 320 316 309 312 315 311 311 315 315 312 311 311 309 308 310 308 305 305 305 305 302
316 314 312 313 313 312 311 311 312 311 309 307 310 313 309 310 316 316 313 311 313 319 317 315 318 317 319 322 322 319 314 314 315 314 314 313 314 316 317 315 311 312 316 316 320 319 316 319 311 304 307 305 304 308 309 312 313 309 310 314 314 312 313 318 317 310 310 316 317 316 315 312 309 311 312 311 311 312 311 308 308 310 307 305 306 305 304 302
316 314 313 313 313 312 311 311 313 311 308 307 310 313 309 310 316 315 313 311 313 320 318 313 315 318 321 322 321 320 315 313 313 314 317 316 315 316 316 317 313 310 312 315 320 320 317 318 310 305 310 304 297 303 307 307 309 311 316 315 310 308 312 318 319 317 316 317 318 319 315 311 312 313 310 310 311 311 310 307 308 308 306 305 306 305 304 302
316 314 313 313 312 312 310 311 312 309 307 308 310 313 313 310 309 310 314 313 312 317 317 311 311 316 321 320 320 319 316 316 315 315 320 318 315 316 315 316 315 310 310 312 317 319 316 315 314 306 308 304 298 304 310 305 302 308 313 308 308 314 316 315 317 319 319 317 320 321 314 312 313 312 312 312 314 313 310 307 307 306 305 305 305 304 302 300
315 313 313 313 312 311 310 311 311 309 307 308 309 311 313 311 309 313 318 315 313 315 313 312 310 310 316 319 320 319 314 315 317 314 317 317 316 316 314 315 316 312 310 311 314 318 315 314 317 307 302 305 303 306 313 309 302 303 305 303 306 313 316 316 315 316 318 317 317 316 313 313 314 316 318 314 313 314 312 312 309 306 305 304 303 304 302 300
314 314 314 312 311 312 310 311 311 310 310 310 309 310 311 310 312 317 317 312 312 313 311 314 312 308 314 317 319 321 316 315 316 314 315 317 316 316 313 314 319 315 310 310 312 315 314 314 316 310 301 306 309 309 312 312 307 305 306 306 306 307 311 314 312 313 318 317 317 315 313 313 313 316 319 315 314 312 312 315 314 309 307 304 303 303 302 301
313 315 314 311 311 312 311 311 313 313 312 312 310 310 310 309 310 314 313 310 311 311 310 316 316 310 311 314 315 318 317 316 315 313 316 317 315 315 312 313 320 316 311 311 312 314 317 316 315 314 310 310 311 308 307 310 310 307 308 309 307 307 310 312 311 312 313 315 318 317 313 312 313 316 318 317 317 314 311 313 315 314 314 311 307 302 301 301
314 316 313 311 311 311 312 314 314 313 314 313 312 311 311 310 310 311 311 310 309 309 309 314 315 312 311 312 314 317 317 319 317 313 315 316 313 313 313 314 315 313 313 315 313 314 320 320 315 316 316 312 308 302 301 306 309 309 309 309 308 307 309 312 313 313 312 311 313 314 313 312 313 319 321 320 321 319 313 312 315 316 316 315 311 303 299 298
315 314 311 309 311 311 312 315 314 313 314 313 312 313 312 311 310 310 310 310 309 309 310 311 312 311 310 311 314 315 315 317 318 315 316 319 315 312 315 315 313 313 315 315 313 314 317 318 314 314 316 313 305 301 301 304 307 310 311 308 307 307 307 311 312 311 313 313 312 313 314 311 311 316 319 320 321 319 314 311 313 315 312 310 308 303 298 296
316 313 308 308 310 311 313 316 315 314 314 313 313 313 312 311 311 310 309 309 310 311 310 308 309 310 310 311 312 312 312 312 314 314 315 320 318 313 314 315 312 313 315 314 314 314 314 317 316 315 317 316 311 307 307 306 307 311 312 308 307 307 307 310 310 309 311 312 311 313 313 310 310 313 314 313 313 312 311 308 307 308 308 307 305 301 296 294
315 313 309 308 309 311 313 315 315 314 314 313 313 313 312 313 313 311 309 308 309 311 310 309 311 311 310 312 311 310 311 310 310 312 314 317 315 309 311 315 313 312 313 314 314 313 315 318 315 314 316 316 313 311 313 312 308 307 310 309 307 307 307 309 310 309 310 310 310 311 311 310 310 310 310 310 309 308 309 306 302 301 302 302 303 303 298 295
315 314 311 308 309 311 313 314 314 313 313 314 313 313 313 313 313 312 311 310 308 309 310 311 312 311 310 311 310 309 311 310 309 311 314 318 316 310 308 310 311 312 314 315 313 313 318 318 313 314 315 312 311 311 313 316 313 310 311 310 307 307 307 308 310 310 310 310 311 310 310 310 310 309 309 309 309 308 308 307 305 303 302 301 301 301 298 295
315 316 312 309 310 311 312 313 313 312 312 313 313 314 314 313 312 311 312 312 310 308 309 310 310 310 310 310 309 309 310 310 310 310 311 314 315 311 306 305 307 309 310 313 312 313 318 317 312 313 313 311 311 310 312 315 314 313 313 310 308 307 307 308 310 309 311 312 312 310 309 310 310 309 309 309 308 308 308 308 308 307 307 305 301 299 297 295
315 317 315 313 313 313 311 313 314 313 312 311 312 313 314 313 313 312 311 311 311 309 309 311 310 309 310 310 309 309 309 309 310 310 309 310 310 310 309 306 306 306 307 309 309 310 314 314 312 313 312 311 311 310 311 312 310 310 312 311 309 307 306 308 308 308 309 311 311 310 310 310 309 308 309 309 308 308 308 307 307 308 309 308 305 300 298 296
315 316 316 314 315 315 313 312 312 313 312 312 311 312 313 312 313 312 312 312 311 309 309 311 311 309 309 309 309 309 308 309 309 310 310 309 309 311 311 309 308 306 307 308 309 310 312 312 312 312 311 311 311 310 310 310 308 308 309 310 309 307 306 307 307 307 308 308 309 309 309 309 309 308 308 308 308 308 308 307 307 308 308 308 307 303 299 297
316 316 316 315 315 315 314 312 312 313 312 312 312 312 312 312 312 312 312 312 312 311 309 310 311 310 309 309 309 308 308 309 309 309 311 311 311 311 311 312 312 308 305 308 310 309 309 311 312 312 311 311 311 310 310 309 309 308 308 308 308 307 307 306 306 306 307 307 307 307 308 308 308 307 308 307 308 307 307 307 307 307 307 307 307 306 303 299
315 315 315 315 315 314 314 313 312 312 312 312 313 313 312 312 312 312 312 311 311 311 310 310 310 311 310 310 309 308 309 309 309 310 311 313 313 312 312 315 316 312 308 308 309 309 309 311 312 312 313 312 311 311 312 311 309 309 309 309 309 309 308 307 307 307 307 307 307 307 308 308 307 307 307 307 308 307 307 308 307 307 308 307 307 307 306 302
313 314 313 315 316 314 314 314 313 312 312 312 312 312 312 313 312 312 313 311 310 310 311 310 310 310 311 310 309 309 309 308 308 308 308 311 314 315 316 317 317 315 313 310 308 309 310 310 311 312 312 312 312 313 313 313 312 311 310 310 309 310 310 309 309 309 308 308 308 309 309 308 307 308 308 308 309 308 308 308 308 308 307 307 307 307 306 305
Wind_Speed
10 11 12 13 14 15 16 17 17 18 19 19 19 19 19 19 19 18 18 19 17 13 9 6 4 6 6 6 6 5 8 7 4 0 2 2 0 1 3 3 4 5 4 4 2 4 3 1 1 4 6 3 4 2 2 2 2 3 3 3 1 3 3 5 7 7 4 2 3 5 5 6 3 2 2 1 2 3 1 3 2 3 2 3 5 4 23 34
10 10 11 12 13 14 15 16 17 18 18 19 19 19 20 20 20 19 18 19 18 14 10 8 5 5 6 7 7 6 8 9 4 2 2 3 1 2 3 4 4 4 5 4 3 3 2 1 1 5 4 3 3 2 2 2 3 3 3 2 2 5 4 5 7 6 3 0 3 5 3 4 4 5 4 2 2 1 3 4 2 4 4 1 3 14 28 33
10 11 11 11 12 13 14 15 16 16 17 18 18 19 20 20 20 20 20 19 18 15 11 9 7 4 5 7 8 7 8 8 4 3 5 3 0 2 3 5 4 4 5 5 4 4 3 2 3 5 4 3 2 2 3 3 1 1 3 2 4 5 4 4 5 6 4 2 4 4 3 2 4 5 4 3 2 3 6 7 4 8 9 5 7 18 26 28
11 11 12 12 13 13 14 14 15 16 17 17 18 19 19 19 20 20 20 20 19 15 11 10 9 6 4 6 8 7 5 5 3 4 5 3 1 2 3 4 5 4 5 5 4 5 4 4 4 4 4 3 3 3 3 3 1 1 4 3 4 2 2 4 6 6 4 3 4 4 3 2 3 4 4 5 4 4 8 10 12 14 12 9 7 15 24 25
12 12 13 14 14 14 15 15 16 16 17 18 18 19 19 19 19 20 20 19 19 16 10 10 10 7 4 4 6 6 3 4 3 3 4 3 2 2 4 4 5 4 4 4 4 5 4 4 6 5 4 2 4 4 1 2 1 1 0 3 4 3 1 3 5 4 4 4 4 5 4 3 3 2 5 9 8 7 6 9 14 12 10 13 13 17 20 21
13 13 13 14 15 16 16 17 17 17 18 18 18 19 19 19 19 19 20 19 19 16 11 9 10 8 4 1 4 3 2 0 3 3 3 3 2 2 4 4 4 3 3 3 3 5 4 5 6 4 3 3 2 2 1 3 2 1 2 3 3 3 2 2 3 4 4 6 4 5 3 3 4 4 4 10 14 8 2 4 7 7 11 17 19 18 16 17
13 14 14 15 16 17 17 18 18 18 19 19 18 19 20 20 20 20 20 19 18 16 12 9 8 7 3 2 3 1 2 4 4 4 5 3 3 3 3 4 3 3 3 2 3 4 4 7 5 3 4 3 2 2 1 2 3 3 1 3 2 3 5 3 2 3 5 6 4 3 3 4 7 5 0 8 17 9 1 1 3 7 15 18 15 13 15 19
14 14 14 15 16 17 18 18 19 19 19 19 19 19 20 21 20 20 20 20 19 17 12 8 7 4 0 3 3 2 2 5 4 5 4 3 3 2 2 2 2 2 3 5 4 4 4 5 3 3 3 2 4 3 1 0 3 3 2 3 1 2 6 3 1 3 4 3 1 4 3 5 7 2 1 11 16 8 3 2 5 9 14 14 12 12 14 16
15 15 15 16 16 17 18 19 20 20 20 21 21 21 21 21 21 21 21 20 20 17 11 6 5 3 3 2 4 2 4 4 4 4 3 3 3 2 2 1 1 1 4 7 5 4 3 1 3 4 3 3 5 3 0 1 1 2 4 4 2 3 6 4 3 2 2 2 3 3 6 6 3 1 6 14 11 5 4 5 6 10 10 11 11 12 13 13
16 16 16 16 17 18 18 19 20 21 21 21 22 22 22 22 22 22 21 20 20 16 9 5 5 3 5 2 5 0 4 4 3 3 2 2 3 2 2 2 2 2 4 5 5 5 3 5 4 3 5 3 3 2 1 1 1 3 5 4 3 3 5 3 4 3 1 2 5 5 7 6 3 2 7 8 2 5 7 5 6 10 10 11 10 11 14 14
17 17 17 17 17 18 19 20 21 21 22 22 23 23 22 23 23 23 22 22 20 14 8 5 4 4 5 4 5 3 5 4 3 2 2 2 3 4 3 2 2 3 5 6 5 5 5 8 8 5 2 2 3 1 2 2 3 2 3 2 3 3 4 2 4 5 1 2 6 7 5 4 3 2 10 4 3 5 7 6 7 9 9 9 10 10 12 14
18 18 18 18 18 19 20 20 21 22 23 23 23 24 23 23 24 24 23 23 19 10 6 5 3 5 3 2 4 6 5 5 3 2 2 3 4 4 3 3 3 4 4 5 5 5 7 8 9 5 1 2 3 1 1 2 3 1 3 1 5 6 3 3 3 3 2 2 5 6 3 5 5 11 12 2 4 4 6 7 6 8 8 7 9 8 8 12
19 19 19 20 19 20 20 20 21 23 23 23 24 24 23 24 24 24 25 23 15 6 4 4 3 5 3 1 5 7 7 6 4 2 2 4 5 4 5 4 5 5 4 7 8 7 7 6 7 6 2 4 1 1 3 4 3 0 2 1 3 6 3 3 1 1 2 3 4 4 4 7 10 17 11 3 6 5 5 7 6 7 7 6 8 7 7 11
20 20 21 21 21 21 20 20 21 22 23 23 24 23 23 24 24 25 25 19 9 3 3 2 2 4 3 3 4 5 8 6 4 3 3 5 6 6 6 6 6 7 6 8 10 8 6 6 8 7 2 3 1 2 4 5 3 1 1 2 2 2 3 5 1 2 3 2 3 4 4 9 9 13 9 4 7 8 8 8 6 7 7 7 8 8 8 11
21 22 22 23 22 22 21 20 20 22 23 23 23 23 23 23 24 25 21 12 4 2 1 1 4 4 1 4 2 4 6 5 5 4 3 4 5 5 6 7 8 9 9 9 10 8 7 7 7 5 1 1 2 3 3 4 3 3 1 3 2 0 4 8 3 5 4 1 2 4 3 10 11 8 4 4 6 7 9 8 7 9 9 9 8 8 8 9
21 22 23 24 24 23 23 21 20 21 23 23 23 23 21 22 24 21 14 7 3 2 1 2 5 5 1 3 1 2 4 4 5 5 4 4 4 5 8 8 8 9 8 8 9 8 7 6 4 2 1 1 3 4 3 4 4 3 1 3 3 2 3 6 2 4 4 0 1 4 3 7 9 5 1 3 6 6 8 9 9 10 10 9 7 8 9 8
21 22 23 24 25 24 23 22 21 21 22 22 22 22 20 21 21 14 7 3 1 2 2 3 5 3 1 1 1 1 2 3 5 5 5 4 4 6 9 6 5 7 7 7 6 4 4 4 1 0 2 2 2 4 3 3 4 3 2 2 4 3 3 4 4 2 1 2 4 4 5 11 13 7 1 4 6 7 9 11 11 10 9 9 8 8 9 9
20 22 23 25 25 24 23 21 21 20 21 22 21 21 20 18 14 7 3 1 2 2 2 2 4 2 3 2 2 2 1 3 4 5 5 4 4 5 5 4 4 5 5 4 2 1 2 3 2 1 3 2 1 5 1 4 4 3 3 3 4 3 4 5 5 2 2 2 5 3 7 15 18 15 8 6 7 9 13 12 11 10 10 9 9 9 10 11
20 20 22 25 25 25 23 20 20 19 21 21 18 18 16 12 7 4 2 1 2 1 2 3 3 2 3 3 2 1 3 4 4 4 5 5 5 5 5 5 5 4 3 1 1 1 1 2 2 1 2 3 4 6 8 8 7 6 5 4 4 5 5 6 6 4 1 2 7 8 10 14 17 18 15 7 7 10 14 11 9 10 10 9 10 11 12 13
19 19 21 23 24 24 22 19 19 17 18 20 18 15 9 4 4 3 2 1 4 3 3 5 4 2 4 2 2 4 4 3 3 4 6 6 6 5 4 4 5 4 2 3 1 1 2 1 4 7 7 8 9 8 6 5 6 5 4 4 5 5 7 6 4 4 0 2 9 9 9 14 16 18 18 10 5 10 16 12 11 12 10 10 11 13 14 15
18 17 18 21 23 24 21 19 18 14 14 15 14 9 1 2 1 4 4 5 6 4 3 6 4 5 6 3 4 6 3 1 3 4 8 7 5 4 1 2 3 0 2 3 2 1 3 4 9 10 9 7 6 6 6 5 5 4 5 4 4 5 7 7 2 4 1 2 7 6 6 14 16 16 16 11 7 15 18 14 14 15 12 10 12 15 15 12
18 17 17 19 21 23 22 19 16 13 12 10 8 4 1 2 2 2 1 4 8 3 3 4 1 6 7 4 6 6 4 2 4 4 9 6 3 4 2 3 5 4 2 2 2 1 1 6 12 7 6 5 5 5 7 6 5 3 3 2 4 4 5 6 3 3 1 2 5 6 7 14 18 17 17 16 16 19 16 12 15 15 13 11 13 15 13 11
16 16 16 17 19 22 22 17 13 11 9 7 6 2 0 1 2 2 1 2 7 4 2 3 3 5 5 4 7 8 4 5 4 6 10 10 2 4 4 5 5 3 1 4 6 4 3 8 8 5 8 8 5 4 6 5 3 3 3 3 5 3 1 4 4 3 1 2 4 6 9 13 16 16 17 17 16 17 14 10 13 13 13 14 14 13 12 14
15 17 15 15 19 22 20 15 10 7 6 5 4 2 2 2 3 1 0 0 4 5 3 5 4 5 4 2 8 11 4 4 4 4 10 12 5 4 5 5 5 2 4 8 8 7 8 6 2 6 6 7 6 3 5 5 2 3 5 6 6 4 5 6 3 3 2 1 3 6 10 10 7 9 13 7 4 10 11 10 13 12 11 11 10 11 13 15
15 17 14 14 18 19 17 12 7 7 7 3 1 2 3 3 2 2 2 1 3 5 4 4 3 4 5 5 7 10 2 2 4 3 7 9 7 4 2 3 4 5 7 7 8 7 9 5 6 7 3 5 6 4 5 8 3 3 6 11 10 7 7 4 3 4 3 3 2 4 7 7 2 4 10 4 3 6 5 7 13 11 9 9 10 11 13 14
15 16 13 13 15 16 12 5 7 11 7 2 1 2 3 3 2 1 2 2 4 5 2 3 3 4 7 4 3 5 2 3 3 1 4 5 4 4 2 1 1 4 7 7 5 4 3 0 4 6 6 5 5 5 6 8 5 2 4 7 8 5 4 2 1 2 0 3 2 3 2 8 3 2 8 5 4 9 7 9 14 10 7 9 11 12 11 12
14 14 12 12 13 13 8 3 10 11 4 2 2 2 3 2 2 2 2 3 6 4 3 2 1 4 6 2 1 5 3 4 1 2 2 2 1 2 2 4 1 2 4 4 2 3 2 3 3 5 6 5 5 6 7 9 7 4 3 4 6 6 5 4 3 1 3 2 3 1 3 8 8 6 9 8 7 11 11 13 18 13 8 10 12 11 12 13
11 13 12 11 11 9 6 8 11 6 2 4 4 2 2 1 2 1 2 4 6 2 3 1 1 3 2 1 2 4 2 2 3 1 2 2 1 3 1 6 6 4 3 5 5 4 3 6 6 7 5 5 6 5 8 12 6 4 3 5 6 6 5 4 4 2 1 3 4 4 4 5 11 5 3 3 6 11 13 14 18 16 10 9 11 12 12 12
10 12 11 9 9 8 7 9 7 4 5 6 4 3 1 2 1 4 2 5 4 1 1 1 2 1 2 2 0 2 1 2 1 3 3 2 0 3 2 6 6 5 1 3 5 4 2 5 7 8 6 6 4 1 4 8 4 3 6 6 5 5 5 4 3 2 2 2 7 7 7 4 10 4 4 2 3 9 12 12 15 14 9 8 9 11 10 9
11 11 11 8 8 8 6 6 5 4 6 6 4 2 1 1 2 2 4 6 2 0 1 1 3 2 5 4 2 1 1 1 0 1 3 1 2 5 1 3 6 4 1 3 3 4 1 1 3 4 4 5 5 3 2 2 4 6 6 5 6 5 4 3 1 3 1 5 8 8 12 9 8 3 6 4 5 9 9 8 10 10 8 8 9 9 8 7
12 10 10 10 10 7 4 3 2 2 3 4 2 2 2 2 3 4 8 5 1 1 1 1 1 3 6 6 3 2 2 1 1 2 2 1 2 4 1 1 3 3 3 4 4 4 2 0 2 2 3 5 6 5 4 3 4 5 4 4 3 3 3 4 4 3 1 6 5 4 8 9 9 6 4 5 6 7 9 8 10 11 10 10 8 7 7 7
12 11 11 11 11 10 7 4 3 4 4 2 2 3 4 1 3 5 4 1 1 3 4 3 2 3 5 3 1 3 4 1 3 5 4 3 3 4 4 5 5 2 3 5 4 4 2 4 3 1 2 4 6 5 3 4 2 3 4 5 3 3 3 3 3 1 3 7 3 3 3 5 12 11 6 8 10 10 10 10 10 10 10 9 6 6 6 6
12 11 12 14 14 12 10 8 8 7 6 1 3 4 6 3 7 4 4 3 3 3 2 3 1 2 4 2 2 3 3 2 4 3 2 3 4 5 6 4 6 3 3 4 1 2 3 3 2 4 3 4 8 6 3 2 3 5 5 5 3 2 1 3 4 2 5 8 3 3 3 4 9 8 11 16 17 15 12 11 10 8 9 8 4 4 5 5
13 12 14 16 16 13 11 9 8 8 6 1 3 5 4 7 5 5 7 7 2 2 3 3 3 2 2 2 4 3 2 4 4 5 3 3 3 5 6 7 6 2 2 2 2 3 4 7 4 7 3 5 11 7 4 6 5 4 4 5 5 5 4 4 4 4 7 7 4 1 2 4 5 3 8 14 13 12 11 10 8 7 8 5 3 3 4 5
15 15 14 15 16 15 13 11 8 6 4 1 4 3 7 10 3 3 7 6 1 1 2 2 4 3 2 3 3 3 3 4 3 5 4 5 5 6 5 8 9 6 5 4 3 3 4 9 4 2 1 5 7 3 4 8 4 2 3 4 3 5 5 3 3 4 1 5 5 3 4 6 4 2 5 5 4 7 10 8 6 10 11 5 4 6 5 6
18 17 15 16 18 17 15 13 11 6 2 3 4 7 10 8 4 4 5 4 4 4 4 1 3 4 4 3 3 4 2 2 1 3 4 4 5 5 3 5 10 13 10 7 4 3 3 6 3 3 2 2 3 1 2 3 3 3 2 3 4 4 5 2 3 1 4 3 7 2 5 11 6 4 5 4 4 9 9 6 8 13 11 6 6 7 7 7
22 18 15 18 20 18 16 15 12 7 2 4 6 11 7 4 5 6 4 4 4 6 7 4 3 5 5 4 4 5 2 1 2 3 3 3 4 6 6 4 7 16 18 10 4 4 4 4 3 2 0 1 1 1 2 2 3 6 3 5 3 2 4 3 2 3 2 5 6 4 11 17 12 7 1 4 6 12 10 7 10 12 8 7 8 8 8 8
23 15 12 19 24 20 18 17 14 7 3 3 11 14 5 3 4 3 4 5 3 5 7 7 6 6 7 5 4 4 6 4 4 4 4 4 5 5 8 4 5 15 20 11 3 3 3 3 4 1 2 1 2 1 1 3 2 5 4 3 3 3 2 2 2 3 4 4 5 10 16 18 14 9 4 4 10 12 10 9 10 11 10 9 9 10 10 7
19 8 6 18 27 25 23 22 15 7 2 5 12 13 4 3 5 3 6 6 3 4 7 7 6 4 4 6 4 4 7 7 6 5 4 4 5 4 8 6 5 10 14 11 5 2 3 4 4 1 1 1 2 1 5 3 1 2 1 1 2 2 4 3 3 3 3 3 5 12 15 16 10 6 6 9 12 11 9 9 10 12 12 10 9 10 10 8
14 4 2 17 30 30 28 23 13 6 5 8 10 8 2 2 5 6 9 7 3 3 5 6 6 5 5 6 4 4 6 7 7 5 4 5 5 5 6 7 5 5 4 6 6 1 3 3 5 1 2 1 4 6 9 10 7 4 3 3 2 1 2 1 1 2 3 4 4 7 12 16 7 7 7 9 9 10 10 9 10 11 11 10 10 10 9 8
9 4 3 19 35 37 29 16 7 6 6 8 9 6 3 4 5 5 7 7 5 3 3 5 7 7 6 6 4 4 5 5 6 6 5 5 5 6 8 9 9 8 6 3 4 4 3 4 5 3 2 6 8 5 3 6 9 9 8 8 9 6 4 2 5 3 3 4 5 4 10 18 7 7 5 6 6 8 10 10 10 9 11 11 10 10 9 8
6 4 6 25 42 41 24 8 6 6 6 8 7 4 3 4 4 4 5 6 4 3 0 3 6 7 7 5 4 5 6 5 7 7 5 6 9 9 7 7 10 11 8 4 3 3 3 2 4 6 7 7 5 2 1 1 4 5 5 6 7 6 7 7 9 5 2 2 3 3 6 18 8 6 4 5 7 8 10 10 9 8 10 10 9 9 8 8
5 4 8 30 49 40 17 6 8 6 6 8 6 4 1 1 2 3 5 6 5 4 4 4 5 7 7 5 4 5 7 6 7 7 4 5 10 11 7 9 11 9 5 3 1 1 2 2 4 6 6 3 3 4 3 2 3 3 5 5 6 7 9 9 6 3 3 5 3 4 6 19 10 5 4 5 5 6 7 9 9 8 7 7 8 8 7 8
5 2 4 24 44 34 13 8 10 8 9 9 9 9 3 1 4 5 5 6 6 5 6 7 5 5 6 4 5 7 8 6 6 6 7 8 8 5 7 13 12 8 5 5 5 5 4 4 5 5 5 5 4 2 3 4 1 4 5 5 8 10 9 3 1 1 4 7 8 5 10 18 10 2 3 3 4 6 8 7 8 7 6 6 7 7 7 8
4 2 3 12 27 21 8 7 7 8 13 14 13 13 9 5 6 8 8 7 6 4 4 5 4 4 5 4 4 7 7 8 8 6 7 9 5 2 6 13 14 11 7 5 5 7 6 5 7 7 8 10 11 9 4 1 3 3 2 6 11 14 13 7 3 6 9 6 10 7 15 18 14 10 11 10 8 8 9 7 6 6 7 7 7 8 8 7
3 3 2 4 9 9 7 6 4 4 10 13 10 9 13 12 6 5 8 8 8 6 3 3 2 3 5 6 6 10 10 10 9 6 6 6 2 3 1 8 11 6 1 1 6 6 3 4 10 14 15 14 14 13 5 6 5 4 6 9 12 15 16 11 7 11 9 4 6 15 23 20 18 21 24 23 17 14 13 9 6 7 8 9 9 10 8 7
4 5 5 5 4 6 8 8 8 6 6 9 7 6 14 17 9 4 7 9 9 9 6 4 4 5 7 10 11 12 11 10 9 11 14 10 5 3 2 1 4 3 5 2 3 4 3 5 12 17 19 16 17 18 8 8 7 9 9 12 13 14 15 14 16 17 7 5 10 22 22 17 17 23 29 30 25 19 16 14 11 10 10 9 9 9 8 7
5 4 5 9 6 7 10 12 15 15 11 10 9 8 12 15 12 10 8 4 3 8 8 5 10 16 17 15 12 10 11 11 12 15 18 13 5 1 2 1 2 2 3 2 3 2 3 7 11 14 18 16 17 19 10 7 8 8 9 13 15 16 17 20 24 22 12 11 19 20 16 15 19 26 30 30 25 18 16 16 14 11 9 7 7 8 8 9
5 2 2 7 7 8 13 17 19 19 18 15 10 10 14 17 19 15 7 3 2 9 12 12 17 22 22 18 13 10 12 13 13 15 13 9 5 2 2 4 1 1 1 1 2 2 3 7 12 14 16 16 17 20 13 8 11 13 10 13 17 17 18 20 25 26 23 23 22 17 16 18 21 27 28 25 21 14 12 16 17 16 14 11 10 9 9 10
5 2 2 5 6 7 10 12 13 13 16 15 12 12 15 18 21 16 8 9 10 8 12 19 24 18 16 16 14 15 18 18 18 15 9 6 6 5 4 6 2 1 1 3 2 2 3 6 10 9 10 14 18 20 13 9 13 17 15 17 23 21 15 18 25 24 21 20 19 17 16 18 23 27 23 21 19 14 15 21 23 21 19 16 15 13 11 12
12 8 5 4 6 8 9 9 10 10 10 12 13 14 15 19 22 19 12 12 15 11 11 21 25 13 7 11 16 22 26 24 22 18 8 6 6 5 4 5 5 3 3 3 1 2 4 4 4 5 7 12 16 16 9 8 9 12 16 25 30 23 16 20 23 18 14 14 16 16 15 17 22 20 15 16 15 13 18 23 21 20 17 13 15 16 14 12
11 11 8 5 5 8 9 8 9 9 7 10 15 17 17 19 21 18 11 8 14 18 14 16 19 11 5 12 22 26 25 23 22 19 10 4 5 6 5 5 6 6 5 4 2 2 4 4 4 6 8 12 15 12 4 5 4 10 15 21 24 21 21 23 21 16 14 12 13 14 15 18 19 15 15 17 14 13 19 20 18 17 14 12 14 16 14 13
Wind_Direction
11 11 10 10 10 9 9 10 11 11 11 11 11 12 13 14 15 15 14 9 358 350 357 348 292 262 258 247 253 303 340 339 328 11 157 197 201 43 359 353 350 354 16 26 75 160 186 20 40 123 131 78 12 341 23 30 70 52 79 95 141 172 200 186 184 196 172 221 206 196 182 150 184 208 170 114 53 70 141 257 280 301 291 245 270 188 163 165
4 5 5 5 4 4 3 3 4 5 5 6 6 5 7 8 9 9 10 9 359 343 339 350 335 276 256 247 253 280 321 334 322 257 201 192 163 45 19 6 355 359 18 31 69 112 130 331 79 110 89 50 355 347 29 359 63 83 112 83 231 195 208 196 179 192 179 199 178 187 185 164 193 171 157 202 249 116 170 240 291 297 272 233 193 158 159 163
356 357 358 357 357 356 356 356 357 357 358 359 359 360 0 2 4 4 4 5 2 347 330 338 343 310 267 248 250 273 311 334 325 245 211 200 164 30 23 18 9 17 24 27 42 56 97 146 144 114 63 59 8 7 45 4 20 154 113 85 245 212 232 223 187 200 200 150 149 179 167 187 217 157 158 197 197 174 203 219 203 237 229 177 164 159 160 164
350 350 351 351 350 349 349 350 350 350 351 352 353 354 354 356 358 359 359 0 1 352 330 331 337 329 287 253 242 262 317 351 295 209 184 203 230 348 2 15 12 22 29 33 40 39 80 107 109 96 72 73 344 17 62 341 305 137 110 167 233 194 242 222 199 210 198 159 150 147 129 212 220 163 183 163 158 231 232 222 206 216 203 167 172 168 167 169
348 345 346 346 344 344 345 345 345 346 345 347 348 349 350 351 352 355 355 356 359 355 337 329 330 333 319 258 232 251 359 24 262 187 173 214 209 336 346 1 7 19 30 38 45 41 63 78 71 54 60 79 352 29 70 302 57 74 244 224 216 158 238 222 192 200 168 133 125 127 154 198 152 178 201 171 201 232 224 223 216 214 181 164 173 172 173 175
345 342 342 341 341 339 340 340 341 342 341 342 343 344 346 346 348 351 352 352 355 354 342 329 326 329 334 233 213 220 95 348 241 182 207 221 208 309 339 351 5 24 28 50 61 56 50 40 56 60 55 68 29 73 182 297 27 111 275 282 234 192 235 219 172 200 160 131 154 168 179 150 142 247 219 189 223 226 161 225 219 200 169 168 169 169 176 181
339 339 336 335 335 334 336 336 337 338 338 338 339 341 342 343 344 345 347 348 350 351 342 330 322 319 341 121 177 129 94 256 237 190 221 221 222 283 331 340 9 31 37 69 67 85 70 39 61 119 87 79 175 149 162 304 26 96 185 277 249 199 231 228 136 191 168 157 195 168 130 161 189 237 125 211 233 227 186 265 190 168 158 163 167 173 185 185
332 331 329 329 328 329 331 331 333 334 334 335 335 338 339 340 340 341 344 344 345 345 337 326 315 298 267 137 164 20 336 248 211 192 219 224 233 270 301 319 21 43 77 64 64 129 103 55 108 156 89 96 174 149 132 234 32 83 161 240 221 228 251 282 3 193 182 195 157 118 184 224 205 203 285 240 238 227 205 126 133 148 149 165 177 182 188 187
327 325 325 325 325 326 326 327 329 330 332 333 333 335 336 337 337 338 339 340 342 339 333 327 309 264 212 147 104 13 274 211 173 193 215 225 233 256 263 242 91 114 96 66 65 117 108 133 191 194 161 149 158 150 158 177 282 176 166 195 189 274 287 333 301 229 172 212 122 151 244 267 259 302 270 253 240 196 142 120 142 150 157 179 183 186 188 188
324 323 324 323 324 324 323 324 325 327 329 330 331 333 334 334 333 335 336 337 339 334 327 317 302 252 219 186 93 42 244 181 177 209 205 218 210 207 212 163 123 135 110 78 74 78 93 176 177 150 148 128 140 152 269 139 160 168 154 189 197 285 309 353 296 290 10 215 172 195 249 278 328 338 255 264 219 143 130 132 162 162 177 187 186 192 191 192
323 322 321 321 323 322 321 322 322 324 325 327 329 330 332 332 331 332 333 333 335 331 316 306 300 243 211 159 128 211 220 171 189 196 179 203 186 187 170 137 126 134 124 92 88 85 106 158 143 113 146 131 127 84 277 165 112 131 132 219 264 327 306 304 294 286 285 230 180 178 246 284 15 256 239 248 104 149 145 160 182 182 192 191 190 193 192 199
322 320 319 319 319 319 320 320 320 322 322 324 325 328 331 330 328 329 329 331 332 323 298 308 291 213 177 109 177 215 204 173 187 177 183 189 164 162 122 103 106 119 140 115 110 111 116 144 126 98 265 151 130 65 204 139 84 97 102 258 300 357 334 245 284 282 201 213 175 151 272 262 199 229 239 168 127 145 144 179 193 197 201 194 197 195 198 203
321 319 318 317 317 317 317 317 319 320 319 321 323 327 330 328 327 326 327 329 328 308 278 308 264 193 147 302 221 205 198 189 199 181 148 162 150 127 96 93 97 97 122 127 128 120 117 144 121 108 129 109 132 171 112 62 58 80 68 73 313 355 338 242 358 16 163 189 170 141 284 257 213 232 241 127 150 139 156 206 199 205 209 200 203 201 207 204
321 319 319 317 316 315 315 316 317 317 317 319 320 325 328 327 324 323 326 329 325 291 271 293 217 172 141 252 224 192 204 198 197 182 150 167 149 113 97 93 94 97 101 116 125 116 112 131 109 99 96 85 140 143 54 15 31 100 27 53 20 349 290 284 338 123 168 187 144 131 269 270 247 244 239 168 168 161 190 218 202 209 212 206 209 207 212 207
318 319 319 317 316 316 315 315 315 315 316 316 319 324 327 325 321 322 327 327 320 270 260 214 183 152 91 276 237 186 205 194 190 183 153 165 158 132 114 111 104 100 99 105 111 108 112 117 93 79 24 2 73 85 22 351 11 39 339 308 340 209 271 298 275 176 210 308 104 143 237 275 273 266 249 171 173 183 209 222 209 215 213 211 212 208 218 216
316 317 317 316 316 316 316 316 315 315 315 316 319 322 325 322 317 320 323 321 301 252 214 179 180 146 57 277 196 177 206 189 189 184 160 151 162 153 131 121 106 99 104 103 104 104 97 84 65 70 116 50 78 85 32 7 349 2 50 256 269 233 281 308 285 208 227 310 199 209 233 281 276 280 330 170 185 197 223 231 219 219 218 213 214 211 217 217
315 316 315 315 315 315 316 317 317 316 315 317 320 322 324 320 314 315 320 319 269 207 154 164 164 137 294 232 151 262 227 173 177 177 166 139 133 147 137 117 98 102 101 99 105 96 54 54 75 280 48 46 90 92 33 336 302 323 24 251 252 231 260 299 294 270 172 166 221 227 233 256 264 269 231 185 196 202 225 234 224 222 221 214 213 215 217 216
315 314 314 314 314 315 316 318 318 317 315 318 323 323 322 315 307 304 290 235 117 109 100 128 124 102 281 216 197 252 184 163 168 162 165 147 128 144 142 119 117 110 72 54 69 59 12 38 81 344 19 20 68 100 171 243 217 232 243 251 276 257 241 253 266 276 104 202 235 215 239 253 264 271 254 201 192 213 229 232 227 225 222 217 213 216 219 218
316 317 317 316 317 316 317 319 318 317 317 319 324 324 317 310 303 272 231 144 128 138 188 218 150 143 235 236 244 225 155 163 169 171 170 153 137 134 118 99 105 100 74 30 318 24 57 50 70 208 232 209 196 172 199 213 178 190 212 200 233 257 257 238 239 260 166 253 256 231 240 255 262 270 267 237 189 223 242 237 234 234 224 217 215 219 220 220
320 319 316 319 321 318 319 322 318 318 320 323 332 335 327 327 339 312 305 234 204 185 186 215 199 227 266 262 177 165 165 174 186 185 167 160 149 132 94 59 53 61 115 178 216 17 101 166 230 221 214 209 211 198 187 176 145 140 152 181 224 236 266 255 234 284 166 210 262 243 243 260 260 263 269 263 198 233 249 240 236 236 227 217 214 221 221 223
322 321 320 323 325 323 322 322 319 318 321 325 333 337 317 159 316 305 311 291 258 221 228 235 212 260 266 231 176 164 155 214 220 181 167 167 145 149 240 46 87 97 251 177 159 13 97 203 238 225 207 200 197 176 137 120 116 113 156 200 253 227 254 268 258 312 345 172 266 277 272 266 261 261 266 266 238 243 245 236 237 235 229 220 216 224 223 223
322 326 328 325 325 323 321 323 322 317 316 320 321 312 176 171 216 253 320 297 287 252 233 265 252 266 260 231 204 158 124 248 266 229 179 158 118 186 234 76 140 206 276 125 135 12 86 236 245 219 164 116 90 127 124 117 122 115 139 175 263 238 267 294 336 349 2 184 271 296 288 272 267 263 259 252 245 252 249 227 232 235 228 222 219 225 223 217
319 323 323 320 324 322 319 324 325 320 318 322 323 305 168 110 154 163 120 277 292 284 218 228 211 239 250 242 201 163 163 213 237 252 184 156 135 187 156 116 154 174 152 179 174 162 204 253 254 181 142 118 86 101 113 106 123 151 148 176 252 243 262 284 304 330 227 204 280 290 279 269 266 263 256 249 245 259 264 238 233 231 223 224 221 221 215 212
317 319 315 314 320 317 317 327 330 334 331 328 333 279 202 160 142 141 357 286 286 288 245 213 204 208 208 198 177 173 205 208 195 241 178 157 146 159 159 148 146 169 216 196 176 188 226 243 158 120 134 127 121 140 141 150 228 238 196 206 238 234 221 237 280 320 299 331 330 309 292 271 256 255 255 264 275 269 266 250 247 237 224 228 226 222 215 213
315 318 315 314 315 313 319 331 346 356 341 330 322 209 177 174 160 78 23 356 280 294 289 227 218 211 184 120 152 173 187 241 217 222 172 162 150 140 171 159 154 207 208 166 159 214 247 230 133 124 123 117 139 191 192 177 206 290 231 216 224 231 232 245 342 359 356 335 331 358 318 284 274 262 261 285 334 278 261 247 251 240 221 225 227 226 220 217
312 320 324 322 322 324 328 338 346 344 335 342 103 188 171 179 203 70 53 16 271 270 273 212 189 180 170 126 148 159 114 281 264 133 152 175 171 135 144 159 125 208 181 142 157 221 255 220 118 141 156 156 176 233 224 173 151 288 247 209 208 207 204 203 35 22 283 260 289 45 312 275 281 250 257 263 277 277 278 269 264 248 210 215 225 226 220 219
307 318 321 322 329 337 345 333 330 339 346 351 357 212 208 193 223 261 25 337 272 223 159 217 183 154 168 176 160 142 185 266 16 79 126 168 231 72 142 193 146 199 181 132 189 235 142 100 83 123 138 159 196 244 218 159 140 240 239 128 140 151 166 174 136 173 235 287 314 154 194 274 274 237 246 248 255 274 272 268 272 263 222 212 225 226 221 219
298 311 312 316 325 331 331 317 321 338 1 336 332 251 233 207 232 22 67 276 270 148 129 249 91 121 137 39 85 120 220 288 94 265 354 74 226 55 171 220 176 185 193 138 208 259 116 149 172 148 134 176 205 235 193 161 154 239 193 116 119 131 142 141 125 181 287 12 300 237 161 275 275 239 257 258 230 259 260 251 260 262 243 219 226 229 224 221
282 301 307 311 315 312 308 313 309 293 311 325 317 297 247 206 248 63 95 247 266 76 84 107 125 109 59 86 351 76 2 356 108 267 353 69 218 65 177 215 146 152 195 141 220 265 80 190 189 149 154 201 204 277 184 172 184 185 136 98 73 73 77 79 111 138 40 328 261 235 165 227 274 223 116 73 192 237 251 247 250 257 253 233 232 233 226 218
268 290 304 298 298 299 295 304 299 279 296 306 298 288 185 188 88 103 232 243 250 115 86 111 174 166 103 127 257 281 182 295 13 356 12 82 16 33 134 175 99 117 323 350 272 254 351 264 195 153 173 182 137 81 61 130 143 133 112 72 51 44 49 49 62 90 43 266 258 231 178 189 273 245 151 178 198 206 221 241 253 255 254 242 235 233 222 210
258 271 289 285 281 283 275 281 305 306 296 291 279 163 137 37 86 187 232 237 260 252 147 165 196 135 141 163 213 192 158 277 211 142 144 165 49 40 77 155 94 82 347 322 291 291 351 80 229 215 154 127 102 74 34 43 96 108 94 74 42 345 10 21 358 51 246 257 257 225 176 185 245 247 187 230 250 219 204 217 236 238 242 242 232 227 218 208
253 260 273 274 273 271 254 253 288 307 300 272 166 125 96 44 231 213 226 259 252 222 176 181 193 166 182 191 206 177 162 213 202 168 164 165 165 179 198 193 162 99 306 248 266 325 289 213 211 195 169 148 119 89 30 5 46 99 98 86 57 325 348 345 309 137 225 258 244 153 145 220 246 245 234 252 260 242 220 217 220 219 229 234 221 214 216 207
246 255 259 256 261 259 247 263 283 280 282 223 153 78 84 205 239 186 164 215 226 219 137 115 107 138 149 150 239 197 163 209 190 171 173 146 171 225 250 225 170 162 251 211 215 332 295 285 151 160 243 185 160 164 194 223 177 159 145 125 135 144 59 277 272 280 270 271 260 147 152 248 269 258 221 224 233 229 222 226 222 216 225 229 215 202 207 211
241 244 249 250 255 253 246 265 275 265 275 239 127 82 115 224 241 136 179 221 242 11 37 69 72 80 134 193 239 196 179 232 172 152 188 139 161 233 243 228 200 151 110 154 179 175 242 280 198 172 223 178 180 196 163 138 150 175 159 140 154 154 166 225 235 252 276 289 288 226 187 226 263 264 208 216 234 234 226 225 223 240 247 241 252 230 213 219
239 233 242 245 242 239 238 247 254 260 277 174 127 146 205 224 217 142 200 211 212 17 21 27 82 104 261 285 282 242 213 239 150 135 188 180 190 210 196 203 196 158 130 171 219 164 217 267 243 169 281 164 175 215 109 114 131 197 133 120 168 178 170 208 220 196 240 316 288 230 220 230 221 240 230 223 247 242 236 229 221 247 249 233 254 253 232 226
232 225 232 231 224 222 219 222 226 233 229 129 161 212 224 225 174 180 202 170 177 152 108 345 94 130 261 286 261 251 230 254 160 145 214 218 224 219 198 209 190 180 182 179 195 178 199 274 314 39 343 131 152 237 117 131 170 161 145 172 204 181 139 148 270 32 69 285 272 249 259 273 282 268 238 194 203 231 237 226 222 241 245 229 241 247 237 231
220 216 218 215 214 211 203 205 205 202 150 121 206 223 223 225 185 178 175 145 160 138 134 221 205 165 220 240 229 215 174 249 192 169 221 231 240 206 195 245 196 190 201 195 205 216 187 267 308 83 205 308 350 24 36 3 122 130 189 210 179 119 96 111 254 347 25 248 270 292 271 276 281 274 280 114 197 233 233 218 227 242 247 239 241 244 242 236
210 207 215 211 206 199 194 198 187 168 110 142 227 236 213 201 214 173 152 143 138 150 165 212 212 179 196 214 228 187 171 198 179 178 215 220 246 191 166 214 204 197 210 207 238 267 165 240 287 123 190 284 3 85 76 339 66 125 201 202 116 143 161 114 169 228 250 236 272 283 275 274 265 252 264 207 209 226 228 220 234 244 242 239 241 245 245 236
201 203 233 203 197 193 188 187 172 148 150 190 226 238 204 196 240 207 187 175 136 165 192 219 221 204 193 187 187 174 183 195 174 183 212 202 237 203 161 196 211 204 210 195 201 239 143 209 249 242 248 312 41 181 192 208 49 54 286 10 48 165 170 170 168 183 211 202 261 279 280 277 253 194 202 221 212 213 214 215 227 233 234 232 231 239 240 225
187 207 255 182 186 187 177 171 162 156 201 212 225 230 176 214 239 227 219 203 172 183 202 214 212 218 217 193 189 184 195 205 182 188 222 204 232 240 194 193 180 172 184 178 201 209 95 210 226 218 335 261 193 205 199 190 174 164 186 185 218 182 125 215 231 127 148 180 231 262 271 273 258 143 175 213 206 201 197 203 218 224 231 231 225 230 230 219
170 230 213 170 178 175 162 159 178 183 204 231 237 232 207 219 219 229 229 204 207 235 178 185 201 209 206 199 209 187 177 205 193 191 229 218 227 243 211 189 162 139 112 119 213 208 146 205 212 176 233 236 225 221 201 191 175 174 190 191 193 184 136 198 249 218 156 192 206 200 258 268 259 113 158 197 184 200 196 199 213 215 222 228 226 228 223 218
170 227 170 166 173 167 156 172 205 188 215 229 232 243 230 224 215 221 215 191 212 259 248 220 216 210 207 198 199 179 171 204 204 199 233 228 219 227 216 177 152 144 134 135 206 204 132 147 208 222 231 237 254 322 13 215 148 153 207 197 182 176 156 188 229 226 159 214 209 111 266 266 259 100 130 180 172 201 201 198 210 215 222 228 231 232 225 222
190 203 150 167 172 165 156 208 201 194 230 227 242 275 280 238 242 223 203 190 197 204 222 237 202 208 231 209 168 183 191 210 203 189 215 237 230 229 198 151 145 142 133 132 163 149 109 136 203 240 262 293 360 19 6 355 88 149 236 197 171 198 198 204 219 186 173 213 187 98 257 264 271 89 130 199 193 214 217 207 216 225 231 238 240 237 228 226
191 175 114 172 178 172 168 204 197 206 223 222 239 246 246 256 228 222 210 201 203 192 213 232 205 211 236 193 180 209 200 209 219 198 204 228 246 236 162 152 155 162 181 191 180 175 181 185 187 219 268 280 287 319 344 338 258 215 232 180 188 213 208 211 27 106 238 210 160 162 247 258 269 84 128 217 211 230 241 229 229 236 237 243 245 240 233 227
176 131 48 184 189 190 202 209 194 206 214 218 230 231 237 254 231 217 210 212 220 192 201 241 220 207 216 181 211 232 207 216 235 221 215 229 264 345 155 169 177 188 207 201 167 172 183 184 181 196 225 236 242 244 238 222 204 225 223 177 196 207 197 193 211 223 234 191 140 190 247 256 269 283 276 258 229 233 247 236 231 241 238 239 242 238 231 222
182 162 114 187 203 217 237 237 215 208 210 214 224 225 226 237 248 215 196 210 226 202 193 251 196 183 211 197 223 240 229 229 233 234 240 234 253 332 220 190 194 203 273 123 149 156 163 194 198 209 221 225 239 248 209 128 152 207 207 194 200 208 202 199 226 232 220 145 162 227 242 255 275 281 278 270 260 259 263 253 238 238 236 232 236 237 228 218
207 197 172 172 198 222 231 238 229 223 207 197 195 205 217 226 240 227 196 207 211 198 207 237 198 204 216 202 216 236 230 228 231 238 246 240 235 302 353 194 235 326 12 12 188 146 126 223 217 222 233 232 243 251 215 147 196 211 199 207 211 209 201 200 226 230 184 128 231 239 241 255 269 269 269 271 270 271 275 275 269 260 251 238 234 234 223 220
214 210 171 174 187 201 207 217 217 216 214 200 197 211 220 224 227 222 212 203 186 190 202 224 216 218 219 208 211 229 226 226 231 234 240 242 236 314 6 203 245 337 34 352 299 158 156 232 228 230 243 241 248 255 228 176 229 224 194 215 221 210 200 206 227 230 201 208 240 245 246 250 255 258 260 266 271 276 283 285 280 272 264 248 236 228 215 218
219 255 198 189 201 199 201 210 212 211 212 210 210 216 220 224 224 220 200 136 199 205 199 219 226 220 220 216 212 224 227 227 234 234 235 235 204 156 246 245 246 21 140 166 276 212 173 233 235 235 248 248 248 253 238 205 243 249 231 231 235 226 208 212 231 234 225 232 246 255 258 256 255 256 259 266 276 287 293 288 283 277 270 262 255 243 225 222
217 232 202 204 224 215 210 216 212 211 212 211 216 221 222 227 229 226 200 181 209 210 193 221 235 224 213 215 216 229 232 231 241 243 219 197 196 182 212 224 194 54 202 189 236 245 208 235 239 241 256 252 249 255 246 213 235 252 256 254 251 242 222 222 237 239 236 244 254 258 260 260 256 257 264 274 283 292 287 279 278 277 274 272 271 264 243 228
237 241 237 231 230 213 213 218 208 211 215 207 214 221 224 228 228 230 227 207 215 218 193 216 234 233 197 203 216 229 232 231 239 242 210 162 186 194 204 211 177 152 202 211 190 208 220 236 245 244 254 250 252 261 249 207 227 252 253 252 252 249 237 235 239 241 237 243 255 257 253 252 256 261 269 270 270 272 271 269 270 271 272 270 269 268 255 236
254 249 244 244 229 199 206 220 213 214 218 208 213 218 221 227 227 227 237 225 221 227 216 212 227 228 194 210 221 228 232 233 238 243 236 183 169 187 197 196 179 169 184 196 173 173 197 208 221 228 244 253 256 258 219 152 217 249 243 245 251 253 249 247 251 251 235 226 242 251 249 254 262 269 269 265 262 259 260 262 263 267 270 264 258 259 257 245